Tracking 29892 objects as of 21-Nov-2024
HD Live streaming from Space Station
objects crossing your sky now

MDS 1

Track MDS 1 now!
10-day predictions
MDS 1 is classified as:


NORAD ID: 27367
Int'l Code: 2002-003A
Perigee: 258.8 km
Apogee: 10,328.4 km
Inclination: 28.5 °
Period: 209.0 minutes
Semi major axis: 11664 km
RCS: 3.0677 m2 (large)
Launch date: February 4, 2002
Source: Japan (JPN)
Launch site: TANEGASHIMA SPACE CENTER (TNSTA)
Your satellite tracking list
Your tracking list is empty




NASA's NSSDC Master Catalog

Two Line Element Set (TLE):
1 27367U 02003A   24325.76715567  .00034992  00000-0  16320-2 0  9991
2 27367  28.5208 123.9201 4316309 268.4851  43.2851  6.89122361352304
Source of the keplerian elements: AFSPC